Simultaneous Nadir Overpasses (SNOs) Predictions

Prediction of SNOs between GOES-17 and METOP-C Satellite Orbit:

Table of predicted SNOs for the next 14.0 days since TLE Epoch: 2/21/2025
Index Date Time (GOES-17) GOES-17 Lat,Lon METOP-C Lat,Lon Distance(km) Time Diff (sec)
1 02/22/2025 16:33:50 0.00,-104.41 0.21,-105.34 106.17 80
2 02/23/2025 16:10:30 0.00,-104.40 -0.89,-100.34 462.91 80
3 02/25/2025 04:29:29 -0.01,-104.38 -0.14,-104.93 62.71 80
4 02/27/2025 16:30:19 0.00,-104.40 0.00,-104.49 10.71 80
5 03/02/2025 04:28:37 -0.01,-104.38 0.04,-104.08 33.47 80
6 03/03/2025 16:47:27 0.01,-104.40 0.93,-108.64 483.21 80
7 03/04/2025 16:24:06 0.01,-104.40 -0.14,-103.63 86.10 80
8 03/06/2025 04:43:05 -0.00,-104.37 -0.86,-108.23 440.30 80
9 03/07/2025 04:25:04 -0.00,-104.36 0.27,-103.24 128.99 80
